This demonstration page uses our WeatherBlox Daily Observations layout. Learn more.

Left ArrowRight Arrow

41.76142, -88.44369

Hourly Observations for May 5, 2023

Temp ( °F °C ) Dew Point ( °F °C ) Humidity (%) Winds ( mph kmh ) Pressure ( in mb ) Visibility ( mi km ) Precip ( " mm )
12:52 am 00:52 Clear 54 12.2 39 3.9 57 57 SSE 10 17 29.94 1014 10 16 0.00 0.00
1:52 am 01:52 Clear 53 11.7 39 3.9 59 59 SE 10 17 29.95 1014 10 16 0.00 0.00
2:52 am 02:52 Clear 52 11.1 39 3.9 61 61 SSE 8 13 29.96 1015 10 16 0.00 0.00
3:52 am 03:52 Clear 52 11.1 39 3.9 61 61 SSE 10 17 29.97 1015 10 16 0.00 0.00
4:52 am 04:52 Clear 50 10 39 3.9 66 66 SSE 9 15 29.97 1015 10 16 0.00 0.00
5:52 am 05:52 Sunny 50 10 39 3.9 66 66 SSE 9 15 29.99 1016 10 16 0.00 0.00
6:52 am 06:52 Sunny 52 11.1 40 4.4 63 63 SSE 10 17 30.02 1017 10 16 0.00 0.00
7:52 am 07:52 Sunny 57 13.9 41 5 55 55 SE 10 17 30.04 1017 10 16 0.00 0.00
8:52 am 08:52 Partly Cloudy 62 16.7 43 6.1 50 50 SSE 13 20 30.04 1017 10 16 0.00 0.00
9:52 am 09:52 Sunny 67 19.4 44 6.7 44 44 S 14 22 30.02 1017 10 16 0.00 0.00
10:52 am 10:52 Sunny 71 21.7 42 5.6 35 35 S 20 31 30.01 1016 10 16 0.00 0.00
11:52 am 11:52 Sunny 73 22.8 43 6.1 34 34 S 18 30 30.00 1016 10 16 0.00 0.00
12:52 pm 12:52 Sunny 74 23.3 42 5.6 32 32 S 17 28 29.99 1016 10 16 0.00 0.00
1:52 pm 13:52 Sunny 77 25 41 5 28 28 S 16 26 29.98 1015 10 16 0.00 0.00
2:52 pm 14:52 Partly Cloudy 77 25 42 5.6 29 29 S 14 22 29.97 1015 10 16 0.00 0.00
3:52 pm 15:52 Mostly Sunny 76 24.4 40 4.4 27 27 S 15 24 29.96 1015 10 16 0.00 0.00
4:52 pm 16:52 Sunny 75 23.9 39 3.9 27 27 SSE 15 24 29.96 1014 10 16 0.00 0.00
5:52 pm 17:52 Sunny 75 23.9 38 3.3 26 26 SSE 14 22 29.96 1014 10 16 0.00 0.00
6:52 pm 18:52 Sunny 73 22.8 39 3.9 29 29 SSE 14 22 29.95 1014 10 16 0.00 0.00
7:52 pm 19:52 Sunny 71 21.7 40 4.4 32 32 S 9 15 29.96 1015 10 16 0.00 0.00
8:52 pm 20:52 Partly Cloudy 67 19.4 41 5 39 39 SSE 8 13 29.98 1015 10 16 0.00 0.00
9:52 pm 21:52 Clear 65 18.3 42 5.6 43 43 SE 8 13 29.99 1016 10 16 0.00 0.00
10:52 pm 22:52 Clear 63 17.2 41 5 44 44 SSE 8 13 30.01 1016 10 16 0.00 0.00
11:52 pm 23:52 Mostly Cloudy 61 16.1 43 6.1 51 51 ESE 8 13 30.01 1016 10 16 0.00 0.00

Powered by Vaisala Xweather